Yatton Keynell, United Kingdom

12:02 PM BST on April 24, 2019 (GMT +0100)
Yatton Keynell

Weather History for 03740 - July, 2006

Change the Weather History Date:

Saturday, July 8, 2006

  Actual Average Record
Temperature  
Mean Temperature 60 °F -  
Max Temperature 68 °F 69 °F - ()
Min Temperature 53 °F 53 °F - ()
Degree Days  
Heating Degree Days 4    
Growing Degree Days 10 (Base 50)    
Moisture  
Dew Point 51 °F    
Average Humidity 73    
Maximum Humidity 95    
Minimum Humidity 44    
Precipitation  
Precipitation 0.02 in 0.07 in - ()
Sea Level Pressure  
Sea Level Pressure 30.01 in    
Wind  
Wind Speed 8 mph ()    
Max Wind Speed 16 mph    
Max Gust Speed -    
Visibility 7.5 miles    
Events Rain    
T = Trace of Precipitation, MM = Missing Value Source: Averaged Metar Reports

Daily Weather History Graph

Daily Weather History Graph

Search for Another Location

Airport or City:

Astronomy

Jul. 08, 2006 Rise Set
Actual Time 5:00 AM BST 9:24 PM BST
Civil Twilight 4:14 AM BST 10:10 PM BST
Nautical Twilight 3:05 AM BST 11:19 PM BST
Astronomical Twilight 1:45 AM BST 12:40 AM BST
Moon 7:42 PM BST (7/8) 1:44 AM BST (7/8)
Length of Visible Light 17h 56m
Length of Day
16h 24m
Waxing Gibbous, 91% of the Moon is Illuminated
Jul 8
Waxing Gibbous
Jul 11
Full
Jul 17
Last Quarter
Jul 25
New
Aug 2
First Quarter

Hourly Weather History & Observations

Time (BST) Temp. Dew Point Humidity Pressure Visibility Wind Dir Wind Speed Gust Speed Precip Events Conditions
12:50 AM 55 °F 52 °F 87% 30.09 in 25 mi SSW 5.8 mph - -   Mostly Cloudy
12:50 AM 55.4 °F 51.8 °F 88% 30.06 in - SSW 5.8 mph - N/A   Clear
1:50 AM 55.4 °F 51.8 °F 88% 30.06 in - South 4.6 mph - N/A   Clear
2:50 AM 53.6 °F 51.8 °F 94% 30.06 in - SSW 5.8 mph - N/A   Clear
3:50 AM 54 °F 53 °F 95% 30.09 in 19 mi SSW 5.8 mph - -   Mostly Cloudy
3:50 AM 55.4 °F 53.6 °F 94% 30.06 in 6.2 mi SSW 5.8 mph - N/A   Mostly Cloudy
4:50 AM 53.6 °F 51.8 °F 94% 30.06 in 6.2 mi SSW 4.6 mph - N/A   Mostly Cloudy
5:50 AM 53.6 °F 51.8 °F 94% 30.06 in 6.2 mi South 4.6 mph - N/A   Mostly Cloudy
6:50 AM 56 °F 54 °F 90% 30.07 in 16 mi South 4.6 mph - -   Scattered Clouds
6:50 AM 55.4 °F 53.6 °F 94% 30.06 in 6.2 mi South 4.6 mph - N/A   Mostly Cloudy
7:50 AM 59.0 °F 53.6 °F 82% 30.06 in 6.2 mi SW 8.1 mph - N/A   Mostly Cloudy
8:50 AM 60.8 °F 51.8 °F 72% 30.06 in 6.2 mi SSW 10.4 mph - N/A   Mostly Cloudy
9:50 AM 64 °F 47 °F 44% 30.05 in 28 mi SW 10.4 mph - -   Mostly Cloudy
9:50 AM 64.4 °F 48.2 °F 56% 30.04 in 6.2 mi SW 10.4 mph - N/A   Mostly Cloudy
10:50 AM 62.6 °F 48.2 °F 59% 30.04 in 6.2 mi SW 13.8 mph - N/A   Mostly Cloudy
11:50 AM 64.4 °F 46.4 °F 52% 30.04 in 6.2 mi SSW 12.7 mph - N/A   Mostly Cloudy
12:50 PM 65 °F 48 °F 44% 30.03 in 34 mi SW 16.1 mph - -   Partly Cloudy
12:50 PM 66.2 °F 48.2 °F 52% 30.04 in 6.2 mi SW 16.1 mph - N/A   Mostly Cloudy
1:50 PM 66.2 °F 51.8 °F 60% 30.01 in 6.2 mi WSW 11.5 mph - N/A   Mostly Cloudy
2:50 PM 66.2 °F 46.4 °F 49% 30.01 in 6.2 mi SW 11.5 mph - N/A   Mostly Cloudy
3:50 PM 66 °F 51 °F 48% 29.99 in 34 mi SSW 12.7 mph - -   Mostly Cloudy
3:50 PM 66.2 °F 51.8 °F 60% 29.98 in 6.2 mi SSW 12.7 mph - N/A   Mostly Cloudy
4:50 PM 66.2 °F 50.0 °F 56% 29.98 in 6.2 mi SSW 12.7 mph - N/A   Mostly Cloudy
5:50 PM 64.4 °F 50.0 °F 59% 29.98 in 6.2 mi SSW 12.7 mph - N/A   Mostly Cloudy
6:50 PM 62 °F 51 °F 58% 29.95 in 28 mi SSW 11.5 mph - -   Scattered Clouds
6:50 PM 62.6 °F 51.8 °F 68% 29.95 in 6.2 mi SSW 11.5 mph - N/A   Mostly Cloudy
7:50 PM 60.8 °F 51.8 °F 72% 29.92 in 6.2 mi South 10.4 mph - N/A   Mostly Cloudy
8:50 PM 59.0 °F 51.8 °F 77% 29.92 in 6.2 mi South 11.5 mph - N/A   Overcast
9:50 PM 58 °F 53 °F 79% 29.92 in 16 mi South 11.5 mph - - Rain Light Rain
9:50 PM 59.0 °F 53.6 °F 82% 29.92 in 6.2 mi South 11.5 mph - N/A Rain Light Rain
10:50 PM 57.2 °F 55.4 °F 94% 29.89 in 6.2 mi South 10.4 mph - N/A   Mostly Cloudy
11:50 PM 57.2 °F 53.6 °F 88% 29.89 in 6.2 mi South 10.4 mph - N/A   Mostly Cloudy